User: anonymous   Login
Location: Oshawa
(43.9000°N, 78.8670°W)
Time: 16:48:24
(UTC-04:00)
Language:

Iridium 54 - Orbit

View from above orbital plane
View from above orbital plane
View from above satellite
View from above satellite

Ground track
Ground track

The orbit data is extracted from the following two-line orbital elements,

1 25171U 98010C   16243.22286916  .00000135  00000-0  41122-4 0  9999
2 25171  86.3954 112.0621 0002204  82.6666 277.4781 14.34218299970227
Epoch (UTC): 30 August 2016 05:20:55
Eccentricity: 0.0002204
inclination: 86.3954°
perigee height: 776 km
apogee height: 779 km
right ascension of ascending node: 112.0621°
argument of perigee: 82.6666°
revolutions per day: 14.34218299
mean anomaly at epoch: 277.4781°
orbit number at epoch: 97022

The dashed part of the orbit path shows where the satellite is in the earth's shadow,  

DLR